Time,TemperatureF,DewpointF,PressureIn,WindDirection,WindDirectionDegrees,WindSpeedMPH,WindSpeedGustMPH,Humidity,HourlyPrecipIn,Conditions,Clouds,dailyrainin,SoftwareType,DateUTC
2013-01-09 00:03:00,41.0,36.0,30.39,North,0,0.0,-999.0,80,-99.99,,,-99.99,,2013-01-09 05:03:00,
2013-01-09 00:12:00,41.0,36.0,30.39,North,0,0.0,-999.0,80,-99.99,,,-99.99,,2013-01-09 05:12:00,
2013-01-09 00:22:00,39.0,36.0,30.40,North,0,0.0,-999.0,86,-99.99,,,-99.99,,2013-01-09 05:22:00,
2013-01-09 00:33:00,41.0,36.0,30.40,North,0,0.0,-999.0,80,-99.99,,,-99.99,,2013-01-09 05:33:00,
2013-01-09 00:42:00,41.0,37.0,30.39,North,0,0.0,-999.0,86,-99.99,,,-99.99,,2013-01-09 05:42:00,
2013-01-09 00:52:00,39.0,37.0,30.40,North,0,0.0,-999.0,93,-99.99,,,-99.99,,2013-01-09 05:52:00,
2013-01-09 01:02:00,39.0,37.0,30.40,North,0,0.0,-999.0,93,-99.99,,,-99.99,,2013-01-09 06:02:00,
2013-01-09 01:12:00,41.0,37.0,30.40,North,0,0.0,-999.0,86,-99.99,,,-99.99,,2013-01-09 06:12:00,
2013-01-09 01:22:00,41.0,37.0,30.40,North,0,0.0,-999.0,86,-99.99,,,-99.99,,2013-01-09 06:22:00,
2013-01-09 01:32:00,41.0,37.0,30.40,North,0,0.0,-999.0,86,-99.99,,,-99.99,,2013-01-09 06:32:00,
2013-01-09 01:42:00,41.0,37.0,30.40,North,0,0.0,-999.0,86,-99.99,,,-99.99,,2013-01-09 06:42:00,
2013-01-09 01:52:00,41.0,37.0,30.41,North,0,0.0,-999.0,86,-99.99,,,-99.99,,2013-01-09 06:52:00,
2013-01-09 02:02:00,41.0,37.0,30.41,North,0,0.0,-999.0,86,-99.99,,,-99.99,,2013-01-09 07:02:00,
2013-01-09 02:12:00,41.0,37.0,30.41,North,0,0.0,-999.0,86,-99.99,,,-99.99,,2013-01-09 07:12:00,
2013-01-09 02:22:00,41.0,37.0,30.40,East,100,2.0,-999.0,86,-99.99,,,-99.99,,2013-01-09 07:22:00,
2013-01-09 02:32:00,41.0,37.0,30.39,ESE,110,1.0,-999.0,86,-99.99,,,-99.99,,2013-01-09 07:32:00,
2013-01-09 02:42:00,41.0,37.0,30.39,North,0,0.0,-999.0,86,-99.99,,,-99.99,,2013-01-09 07:42:00,
2013-01-09 02:52:00,41.0,37.0,30.39,SW,230,2.0,-999.0,86,-99.99,,,-99.99,,2013-01-09 07:52:00,
2013-01-09 03:02:00,41.0,37.0,30.39,SW,230,2.0,-999.0,86,-99.99,,,-99.99,,2013-01-09 08:02:00,
2013-01-09 03:12:00,41.0,37.0,30.39,North,0,0.0,-999.0,86,-99.99,,,-99.99,,2013-01-09 08:12:00,
2013-01-09 03:22:00,41.0,37.0,30.38,North,0,0.0,-999.0,86,-99.99,,,-99.99,,2013-01-09 08:22:00,
2013-01-09 03:32:00,41.0,37.0,30.38,North,0,0.0,-999.0,86,-99.99,,,-99.99,,2013-01-09 08:32:00,
2013-01-09 03:42:00,39.0,37.0,30.38,South,170,1.0,-999.0,93,-99.99,,,-99.99,,2013-01-09 08:42:00,
2013-01-09 03:52:00,39.0,37.0,30.38,SSW,210,2.0,-999.0,93,-99.99,,,-99.99,,2013-01-09 08:52:00,
2013-01-09 04:02:00,39.0,37.0,30.38,SSW,210,2.0,-999.0,93,-99.99,,,-99.99,,2013-01-09 09:02:00,
2013-01-09 04:12:00,37.0,36.0,30.38,North,0,0.0,-999.0,93,-99.99,,,-99.99,,2013-01-09 09:12:00,
2013-01-09 04:22:00,37.0,36.0,30.38,SW,220,2.0,-999.0,93,-99.99,,,-99.99,,2013-01-09 09:22:00,
2013-01-09 04:32:00,37.0,36.0,30.38,WSW,240,2.0,-999.0,93,-99.99,,,-99.99,,2013-01-09 09:32:00,
2013-01-09 04:42:00,37.0,36.0,30.38,WSW,250,1.0,-999.0,93,-99.99,,,-99.99,,2013-01-09 09:42:00,
2013-01-09 04:53:00,37.0,36.0,30.38,SW,220,1.0,-999.0,93,-99.99,,,-99.99,,2013-01-09 09:53:00,
2013-01-09 05:02:00,37.0,36.0,30.38,SW,220,1.0,-999.0,93,-99.99,,,-99.99,,2013-01-09 10:02:00,
2013-01-09 05:12:00,36.0,36.0,30.38,West,260,1.0,-999.0,100,-99.99,,,-99.99,,2013-01-09 10:12:00,
2013-01-09 05:22:00,36.0,36.0,30.37,SW,230,1.0,-999.0,100,-99.99,,,-99.99,,2013-01-09 10:22:00,
2013-01-09 05:32:00,36.0,36.0,30.37,WSW,240,2.0,-999.0,100,-99.99,,,-99.99,,2013-01-09 10:32:00,
2013-01-09 05:42:00,36.0,36.0,30.37,North,0,0.0,-999.0,100,-99.99,,,-99.99,,2013-01-09 10:42:00,
2013-01-09 05:52:00,36.0,34.0,30.37,North,0,0.0,-999.0,93,-99.99,,,-99.99,,2013-01-09 10:52:00,
2013-01-09 06:02:00,36.0,34.0,30.37,North,0,0.0,-999.0,93,-99.99,,,-99.99,,2013-01-09 11:02:00,
2013-01-09 06:12:00,34.0,34.0,30.37,North,0,0.0,-999.0,100,-99.99,,,-99.99,,2013-01-09 11:12:00,
2013-01-09 06:22:00,34.0,32.0,30.38,North,0,0.0,-999.0,93,-99.99,,,-99.99,,2013-01-09 11:22:00,
2013-01-09 06:33:00,32.0,32.0,30.38,NNE,30,1.0,-999.0,100,-99.99,,,-99.99,,2013-01-09 11:33:00,
2013-01-09 06:42:00,32.0,32.0,30.38,North,0,0.0,-999.0,100,-99.99,,,-99.99,,2013-01-09 11:42:00,
2013-01-09 06:52:00,32.0,32.0,30.39,North,0,0.0,-999.0,100,-99.99,,,-99.99,,2013-01-09 11:52:00,
2013-01-09 07:03:00,32.0,32.0,30.39,North,0,0.0,-999.0,100,-99.99,,,-99.99,,2013-01-09 12:03:00,
2013-01-09 07:12:00,32.0,32.0,30.39,North,0,0.0,-999.0,100,-99.99,,,-99.99,,2013-01-09 12:12:00,
2013-01-09 07:23:00,32.0,32.0,30.39,NE,40,1.0,-999.0,100,-99.99,,,-99.99,,2013-01-09 12:23:00,
2013-01-09 07:33:00,32.0,32.0,30.39,North,0,0.0,-999.0,100,-99.99,,,-99.99,,2013-01-09 12:33:00,
2013-01-09 07:43:00,32.0,32.0,30.39,SE,140,2.0,-999.0,100,-99.99,,,-99.99,,2013-01-09 12:43:00,
2013-01-09 07:52:00,32.0,32.0,30.39,North,0,0.0,-999.0,100,-99.99,,,-99.99,,2013-01-09 12:52:00,
2013-01-09 08:03:00,32.0,32.0,30.39,North,0,0.0,-999.0,100,-99.99,,,-99.99,,2013-01-09 13:03:00,
2013-01-09 08:12:00,32.0,32.0,30.39,North,0,0.0,-999.0,100,-99.99,,,-99.99,,2013-01-09 13:12:00,
2013-01-09 08:23:00,36.0,36.0,30.40,North,0,0.0,-999.0,100,-99.99,,,-99.99,,2013-01-09 13:23:00,
2013-01-09 08:33:00,36.0,36.0,30.40,North,0,0.0,-999.0,100,-99.99,,,-99.99,,2013-01-09 13:33:00,
2013-01-09 08:43:00,37.0,36.0,30.40,North,0,0.0,-999.0,93,-99.99,,,-99.99,,2013-01-09 13:43:00,
2013-01-09 08:52:00,39.0,37.0,30.40,SSW,200,2.0,-999.0,93,-99.99,,,-99.99,,2013-01-09 13:52:00,
2013-01-09 09:03:00,39.0,37.0,30.40,SSW,200,2.0,-999.0,93,-99.99,,,-99.99,,2013-01-09 14:03:00,
2013-01-09 09:12:00,41.0,39.0,30.41,SW,230,2.0,-999.0,93,-99.99,,,-99.99,,2013-01-09 14:12:00,
2013-01-09 09:23:00,45.0,37.0,30.40,SW,220,3.0,-999.0,75,-99.99,,,-99.99,,2013-01-09 14:23:00,
2013-01-09 09:33:00,46.0,37.0,30.40,SW,220,3.0,-999.0,70,-99.99,,,-99.99,,2013-01-09 14:33:00,
2013-01-09 09:43:00,48.0,37.0,30.40,SW,220,5.0,-999.0,66,-99.99,,,-99.99,,2013-01-09 14:43:00,
2013-01-09 09:53:00,50.0,36.0,30.39,SSW,210,5.0,-999.0,57,-99.99,,,-99.99,,2013-01-09 14:53:00,
2013-01-09 10:03:00,50.0,36.0,30.39,SSW,210,5.0,-999.0,57,-99.99,,,-99.99,,2013-01-09 15:03:00,
2013-01-09 10:12:00,50.0,36.0,30.39,SW,220,7.0,-999.0,57,-99.99,,,-99.99,,2013-01-09 15:12:00,
2013-01-09 10:23:00,50.0,36.0,30.38,SW,220,5.0,-999.0,57,-99.99,,,-99.99,,2013-01-09 15:23:00,
2013-01-09 10:33:00,50.0,36.0,30.38,SW,220,5.0,-999.0,57,-99.99,,,-99.99,,2013-01-09 15:33:00,
2013-01-09 10:42:00,50.0,36.0,30.38,SW,220,7.0,-999.0,57,-99.99,,,-99.99,,2013-01-09 15:42:00,
2013-01-09 10:53:00,52.0,37.0,30.37,WSW,240,5.0,-999.0,57,-99.99,,,-99.99,,2013-01-09 15:53:00,
2013-01-09 11:03:00,52.0,37.0,30.37,WSW,240,5.0,-999.0,57,-99.99,,,-99.99,,2013-01-09 16:03:00,
2013-01-09 11:12:00,54.0,37.0,30.35,SSW,210,7.0,-999.0,54,-99.99,,,-99.99,,2013-01-09 16:12:00,
2013-01-09 11:23:00,54.0,37.0,30.33,South,190,8.0,-999.0,54,-99.99,,,-99.99,,2013-01-09 16:23:00,
2013-01-09 11:33:00,54.0,37.0,30.33,South,190,7.0,-999.0,54,-99.99,,,-99.99,,2013-01-09 16:33:00,
2013-01-09 11:43:00,55.0,37.0,30.33,SSW,210,8.0,-999.0,50,-99.99,,,-99.99,,2013-01-09 16:43:00,
2013-01-09 11:52:00,55.0,37.0,30.33,SSW,210,6.0,-999.0,50,-99.99,,,-99.99,,2013-01-09 16:52:00,
2013-01-09 12:03:00,55.0,37.0,30.33,SSW,210,6.0,-999.0,50,-99.99,,,-99.99,,2013-01-09 17:03:00,
2013-01-09 12:12:00,55.0,39.0,30.32,WSW,250,9.0,-999.0,54,-99.99,,,-99.99,,2013-01-09 17:12:00,
2013-01-09 12:23:00,55.0,39.0,30.31,West,270,8.0,-999.0,54,-99.99,,,-99.99,,2013-01-09 17:23:00,
2013-01-09 12:33:00,57.0,39.0,30.31,WSW,250,8.0,-999.0,50,-99.99,,,-99.99,,2013-01-09 17:33:00,
2013-01-09 12:43:00,55.0,39.0,30.31,West,270,6.0,-999.0,54,-99.99,,,-99.99,,2013-01-09 17:43:00,
2013-01-09 12:53:00,57.0,39.0,30.29,WSW,240,8.0,-999.0,50,-99.99,,,-99.99,,2013-01-09 17:53:00,
2013-01-09 13:03:00,57.0,39.0,30.29,WSW,240,8.0,-999.0,50,-99.99,,,-99.99,,2013-01-09 18:03:00,
2013-01-09 13:12:00,57.0,39.0,30.28,SW,220,15.0,-999.0,50,-99.99,,,-99.99,,2013-01-09 18:12:00,
2013-01-09 13:24:00,55.0,41.0,30.28,West,260,10.0,-999.0,58,-99.99,,,-99.99,,2013-01-09 18:24:00,
2013-01-09 13:33:00,55.0,41.0,30.28,WSW,240,8.0,16.0,58,-99.99,,,-99.99,,2013-01-09 18:33:00,
2013-01-09 13:43:00,55.0,41.0,30.28,WSW,250,9.0,-999.0,58,-99.99,,,-99.99,,2013-01-09 18:43:00,
2013-01-09 13:53:00,55.0,41.0,30.28,West,260,9.0,-999.0,58,-99.99,,,-99.99,,2013-01-09 18:53:00,
2013-01-09 14:03:00,55.0,41.0,30.28,West,260,9.0,-999.0,58,-99.99,,,-99.99,,2013-01-09 19:03:00,
2013-01-09 14:13:00,54.0,41.0,30.29,WSW,250,5.0,-999.0,62,-99.99,,,-99.99,,2013-01-09 19:13:00,
2013-01-09 14:23:00,54.0,41.0,30.30,West,260,8.0,-999.0,62,-99.99,,,-99.99,,2013-01-09 19:23:00,
2013-01-09 14:33:00,54.0,41.0,30.30,West,270,5.0,-999.0,62,-99.99,,,-99.99,,2013-01-09 19:33:00,
2013-01-09 14:43:00,54.0,41.0,30.30,West,280,5.0,-999.0,62,-99.99,,,-99.99,,2013-01-09 19:43:00,
2013-01-09 14:52:00,54.0,41.0,30.29,WSW,250,3.0,-999.0,62,-99.99,,,-99.99,,2013-01-09 19:52:00,
2013-01-09 15:03:00,54.0,41.0,30.29,WSW,250,3.0,-999.0,62,-99.99,,,-99.99,,2013-01-09 20:03:00,
2013-01-09 15:12:00,55.0,41.0,30.27,WSW,240,7.0,-999.0,58,-99.99,,,-99.99,,2013-01-09 20:12:00,
2013-01-09 15:23:00,55.0,41.0,30.26,SW,220,7.0,-999.0,58,-99.99,,,-99.99,,2013-01-09 20:23:00,
2013-01-09 15:33:00,54.0,43.0,30.26,SW,220,9.0,-999.0,66,-99.99,,,-99.99,,2013-01-09 20:33:00,
2013-01-09 15:43:00,55.0,43.0,30.25,SW,220,10.0,-999.0,62,-99.99,,,-99.99,,2013-01-09 20:43:00,
2013-01-09 15:53:00,55.0,43.0,30.25,SW,220,7.0,-999.0,62,-99.99,,,-99.99,,2013-01-09 20:53:00,
2013-01-09 16:03:00,55.0,43.0,30.25,SW,220,7.0,-999.0,62,-99.99,,,-99.99,,2013-01-09 21:03:00,
2013-01-09 16:13:00,57.0,43.0,30.24,SW,220,8.0,-999.0,58,-99.99,,,-99.99,,2013-01-09 21:13:00,
2013-01-09 16:23:00,55.0,43.0,30.22,SW,220,7.0,-999.0,62,-99.99,,,-99.99,,2013-01-09 21:23:00,
2013-01-09 16:33:00,55.0,43.0,30.22,SW,230,8.0,-999.0,62,-99.99,,,-99.99,,2013-01-09 21:33:00,
2013-01-09 16:43:00,55.0,45.0,30.20,SSW,200,10.0,-999.0,66,-99.99,,,-99.99,,2013-01-09 21:43:00,
2013-01-09 16:52:00,55.0,45.0,30.22,West,260,6.0,-999.0,66,-99.99,,,-99.99,,2013-01-09 21:52:00,
2013-01-09 17:03:00,55.0,45.0,30.22,West,260,6.0,-999.0,66,-99.99,,,-99.99,,2013-01-09 22:03:00,
2013-01-09 17:12:00,55.0,45.0,30.23,West,260,8.0,-999.0,66,-99.99,,,-99.99,,2013-01-09 22:12:00,
2013-01-09 17:23:00,54.0,45.0,30.22,SW,220,9.0,-999.0,71,-99.99,,,-99.99,,2013-01-09 22:23:00,
2013-01-09 17:33:00,54.0,45.0,30.22,WSW,240,8.0,-999.0,71,-99.99,,,-99.99,,2013-01-09 22:33:00,
2013-01-09 17:43:00,55.0,45.0,30.22,WSW,240,10.0,16.0,66,-99.99,,,-99.99,,2013-01-09 22:43:00,
2013-01-09 17:52:00,54.0,46.0,30.23,WSW,240,9.0,-999.0,76,-99.99,,,-99.99,,2013-01-09 22:52:00,
2013-01-09 18:03:00,54.0,46.0,30.23,WSW,240,9.0,-999.0,76,-99.99,,,-99.99,,2013-01-09 23:03:00,
2013-01-09 18:13:00,54.0,46.0,30.22,WSW,240,9.0,-999.0,76,-99.99,,,-99.99,,2013-01-09 23:13:00,
2013-01-09 18:22:00,54.0,46.0,30.22,West,260,8.0,-999.0,76,-99.99,,,-99.99,,2013-01-09 23:22:00,
2013-01-09 18:33:00,52.0,46.0,30.23,West,260,7.0,-999.0,81,-99.99,,,-99.99,,2013-01-09 23:33:00,
2013-01-09 18:43:00,52.0,46.0,30.23,West,260,6.0,-999.0,81,-99.99,,,-99.99,,2013-01-09 23:43:00,
2013-01-09 18:52:00,52.0,46.0,30.23,WSW,250,8.0,-999.0,81,-99.99,,,-99.99,,2013-01-09 23:52:00,
2013-01-09 19:03:00,52.0,46.0,30.23,WSW,250,8.0,-999.0,81,-99.99,,,-99.99,,2013-01-10 00:03:00,
2013-01-09 19:12:00,52.0,46.0,30.23,WSW,240,8.0,-999.0,81,-99.99,,,-99.99,,2013-01-10 00:12:00,
2013-01-09 19:22:00,52.0,46.0,30.23,WSW,250,8.0,-999.0,81,-99.99,,,-99.99,,2013-01-10 00:22:00,
2013-01-09 19:32:00,52.0,46.0,30.24,WNW,290,6.0,-999.0,81,-99.99,,,-99.99,,2013-01-10 00:32:00,
2013-01-09 19:42:00,52.0,46.0,30.25,West,260,8.0,-999.0,81,-99.99,,,-99.99,,2013-01-10 00:42:00,
2013-01-09 19:52:00,52.0,46.0,30.26,West,260,9.0,-999.0,81,-99.99,,,-99.99,,2013-01-10 00:52:00,
2013-01-09 20:02:00,52.0,46.0,30.26,West,260,9.0,-999.0,81,-99.99,,,-99.99,,2013-01-10 01:02:00,
2013-01-09 20:12:00,52.0,46.0,30.27,WNW,290,8.0,-999.0,81,-99.99,,,-99.99,,2013-01-10 01:12:00,
2013-01-09 20:22:00,52.0,46.0,30.29,WNW,300,7.0,-999.0,81,-99.99,,,-99.99,,2013-01-10 01:22:00,
2013-01-09 20:33:00,50.0,46.0,30.29,NW,320,8.0,-999.0,87,-99.99,,,-99.99,,2013-01-10 01:33:00,
2013-01-09 20:43:00,50.0,46.0,30.29,NNW,330,8.0,-999.0,87,-99.99,,,-99.99,,2013-01-10 01:43:00,
2013-01-09 20:52:00,50.0,45.0,30.30,NW,320,7.0,-999.0,81,-99.99,,,-99.99,,2013-01-10 01:52:00,
2013-01-09 21:03:00,50.0,45.0,30.30,NW,320,7.0,-999.0,81,-99.99,,,-99.99,,2013-01-10 02:03:00,
2013-01-09 21:12:00,48.0,45.0,30.30,West,280,6.0,-999.0,87,-99.99,,,-99.99,,2013-01-10 02:12:00,
2013-01-09 21:22:00,48.0,43.0,30.29,West,280,2.0,-999.0,81,-99.99,,,-99.99,,2013-01-10 02:22:00,
2013-01-09 21:32:00,48.0,43.0,30.30,WNW,290,5.0,-999.0,81,-99.99,,,-99.99,,2013-01-10 02:32:00,
2013-01-09 21:42:00,48.0,43.0,30.30,WNW,290,5.0,-999.0,81,-99.99,,,-99.99,,2013-01-10 02:42:00,
2013-01-09 21:52:00,48.0,43.0,30.30,WNW,290,5.0,-999.0,81,-99.99,,,-99.99,,2013-01-10 02:52:00,
2013-01-09 22:03:00,48.0,43.0,30.30,West,270,6.0,-999.0,81,-99.99,,,-99.99,,2013-01-10 03:03:00,
2013-01-09 22:12:00,48.0,41.0,30.30,WNW,300,8.0,-999.0,76,-99.99,,,-99.99,,2013-01-10 03:12:00,
2013-01-09 22:22:00,48.0,39.0,30.31,WNW,300,16.0,16.0,70,-99.99,,,-99.99,,2013-01-10 03:22:00,
2013-01-09 22:33:00,48.0,37.0,30.31,NW,320,6.0,16.0,66,-99.99,,,-99.99,,2013-01-10 03:33:00,
2013-01-09 22:42:00,50.0,36.0,30.30,NW,320,12.0,-999.0,57,-99.99,,,-99.99,,2013-01-10 03:42:00,
2013-01-09 22:52:00,50.0,36.0,30.31,WNW,300,7.0,-999.0,57,-99.99,,,-99.99,,2013-01-10 03:52:00,
2013-01-09 23:02:00,50.0,36.0,30.31,WNW,300,7.0,-999.0,57,-99.99,,,-99.99,,2013-01-10 04:02:00,
2013-01-09 23:12:00,50.0,34.0,30.31,WNW,300,6.0,-999.0,53,-99.99,,,-99.99,,2013-01-10 04:12:00,
2013-01-09 23:22:00,50.0,34.0,30.31,WNW,290,5.0,-999.0,53,-99.99,,,-99.99,,2013-01-10 04:22:00,
2013-01-09 23:32:00,50.0,34.0,30.32,West,280,9.0,-999.0,53,-99.99,,,-99.99,,2013-01-10 04:32:00,
2013-01-09 23:42:00,50.0,34.0,30.31,West,280,10.0,-999.0,53,-99.99,,,-99.99,,2013-01-10 04:42:00,
2013-01-09 23:52:00,48.0,34.0,30.32,WNW,290,14.0,-999.0,57,-99.99,,,-99.99,,2013-01-10 04:52:00,